Wind_Speed
9 16 17 10 12 9 11 12 16 21 15 17 16 18 20 26 33 26 27 30 27 24 19 18 20 18 16 13 13 15 17 17 18 20 23 25 19 17 16 16 18 16 15 17
7 14 9 5 7 9 9 12 16 23 13 19 17 26 26 27 36 32 26 26 30 27 25 24 26 26 27 22 17 17 17 19 20 21 24 25 26 24 21 23 21 21 18 18
10 5 5 5 6 9 10 15 16 21 19 14 15 20 18 18 36 34 30 25 31 31 26 27 30 33 29 31 28 20 18 19 21 23 25 30 32 29 29 27 24 25 22 21
11 10 7 7 11 12 19 14 16 9 13 12 13 7 12 13 23 30 30 32 32 31 35 33 35 37 38 35 33 26 24 22 23 22 24 25 32 32 27 27 27 28 27 24
10 8 9 16 13 12 16 18 14 12 15 16 19 10 18 17 15 22 29 34 32 33 37 40 41 42 40 42 40 35 31 29 28 25 20 25 30 38 34 34 31 29 27 25
15 13 17 14 13 17 18 20 14 16 16 6 21 16 25 25 26 21 19 16 27 32 34 40 42 41 48 48 47 44 41 35 33 32 30 28 33 34 33 30 29 29 27 29
8 8 15 16 18 18 17 15 7 7 6 7 14 13 21 19 18 20 23 27 25 23 24 24 29 44 46 49 47 51 47 39 38 37 39 23 27 30 36 29 30 33 25 30
12 14 2 6 10 13 14 14 6 7 5 11 20 7 10 11 17 17 18 25 32 33 30 27 24 30 34 37 38 44 47 43 40 42 44 33 28 34 31 29 29 29 26 27
17 29 27 23 18 18 18 20 21 22 21 3 12 18 22 7 11 23 18 20 21 25 27 27 26 25 26 27 29 35 42 45 45 45 46 44 43 40 32 35 29 23 30 26
7 24 23 27 21 23 23 21 13 10 3 5 7 8 13 21 24 15 13 18 18 12 10 9 11 13 11 15 16 29 39 39 33 39 41 42 40 42 30 30 26 25 26 27
12 11 16 14 16 20 20 24 21 11 7 5 2 7 17 16 15 25 24 27 20 16 14 13 11 11 8 7 10 15 26 25 28 32 34 33 31 35 28 27 24 23 27 26
16 10 19 20 16 11 13 17 18 15 11 9 7 12 16 16 16 20 20 18 21 24 27 21 19 15 13 11 12 15 16 21 20 23 25 27 30 30 27 26 23 25 27 26
16 5 7 13 22 19 16 14 10 10 8 11 5 8 15 18 17 15 19 25 24 19 20 22 25 27 22 21 20 19 18 17 18 18 18 23 26 23 19 18 19 21 23 25
22 18 15 13 15 20 23 21 24 20 13 17 23 31 25 23 27 24 22 22 25 25 26 27 24 25 25 28 27 25 23 25 21 21 21 24 25 24 19 18 20 22 24 28
17 20 22 23 21 22 26 28 27 28 32 27 30 35 32 28 32 35 34 31 31 30 28 25 24 28 32 36 34 33 32 28 26 23 24 27 28 27 24 24 24 26 28 29
32 27 32 35 30 29 30 30 31 33 35 38 34 29 32 29 28 34 34 37 41 38 35 30 28 30 32 35 34 37 35 34 33 28 27 31 32 32 31 29 29 26 27 27
35 35 31 29 23 28 27 24 20 20 25 28 25 24 23 24 25 26 32 31 32 37 39 36 30 27 29 30 29 37 35 40 41 35 33 36 37 35 33 33 32 28 26 27
30 31 27 19 16 6 10 11 12 13 17 20 22 24 25 26 27 28 34 35 34 32 32 34 34 34 30 29 34 41 48 43 42 43 40 38 40 39 40 41 31 27 26 26
16 15 11 7 8 20 25 20 23 22 24 26 30 32 33 34 33 28 30 33 37 39 39 39 37 39 37 34 33 35 41 56 54 47 43 43 46 46 42 30 29 22 25 26
16 14 15 15 8 5 8 11 10 13 24 22 25 30 34 37 42 43 42 41 39 37 34 38 38 34 38 38 38 38 40 46 59 59 51 48 49 50 48 41 36 30 29 29
19 17 20 20 15 11 15 23 23 18 21 27 30 32 34 36 36 39 41 42 41 41 41 36 36 36 36 36 36 41 44 50 56 60 63 65 57 53 42 44 37 25 28 28
15 14 14 9 6 12 20 19 21 28 30 37 39 39 42 44 45 46 47 43 45 44 45 44 37 37 35 39 39 39 41 43 51 56 65 66 69 51 47 37 27 29 30 26
17 19 19 18 21 28 39 44 44 40 41 41 45 45 47 52 52 53 56 58 55 54 51 48 49 48 40 38 41 44 46 43 44 58 71 70 75 42 40 33 31 31 28 27
21 21 25 31 30 31 33 34 32 29 33 35 37 40 41 44 45 46 46 47 46 42 35 34 35 34 30 36 37 39 42 48 53 56 52 43 48 37 32 26 25 25 26 26
26 24 23 26 24 26 26 25 26 28 31 32 33 33 34 34 34 33 35 35 34 31 27 25 25 24 23 22 29 26 30 40 39 42 31 23 22 20 22 24 26 27 25 23
17 15 19 28 26 29 32 31 28 32 34 32 33 35 34 32 34 34 35 32 30 30 24 23 24 27 24 16 16 15 17 28 19 23 17 10 16 21 23 24 25 24 20 19
Wind_Direction
235 244 243 248 220 232 249 278 281 249 271 307 301 305 298 253 230 226 232 239 251 264 290 259 261 266 253 238 212 209 215 221 233 243 247 254 269 274 269 271 271 281 287 292
234 239 222 196 211 234 264 288 270 271 295 309 296 289 301 241 237 245 252 256 253 259 266 254 255 261 264 263 250 228 224 226 237 249 258 263 263 261 264 263 268 273 282 288
239 162 178 258 275 288 294 296 292 295 295 293 297 298 274 268 237 240 240 256 265 264 260 265 260 253 259 260 257 239 237 239 243 251 262 265 260 261 262 270 275 279 278 283
252 211 232 284 288 304 308 318 295 258 283 302 305 284 266 249 242 239 247 266 267 267 261 259 262 260 259 259 255 248 238 236 241 244 250 270 267 267 276 274 271 272 279 283
254 263 251 288 281 310 303 299 296 270 279 284 287 263 284 282 262 251 264 268 267 269 269 271 266 261 261 258 254 255 247 239 239 240 259 278 297 252 253 261 263 268 275 275
274 284 280 273 284 296 296 296 289 275 283 256 279 268 280 280 277 275 272 303 277 273 277 268 264 259 259 258 255 252 254 246 247 247 249 272 295 275 245 244 262 271 271 269
303 290 261 264 277 283 283 288 295 309 301 239 288 271 278 273 263 277 290 282 275 276 275 273 269 260 257 257 259 252 254 252 247 249 245 280 300 293 256 245 254 267 269 269
288 299 195 305 259 273 284 294 252 231 229 256 280 259 284 278 293 295 298 298 282 271 272 271 283 266 260 262 257 251 250 252 251 250 250 254 290 300 267 257 256 270 272 270
272 268 271 277 282 288 289 289 293 287 272 252 265 265 287 288 290 316 302 319 296 275 272 274 270 254 269 266 264 254 250 253 253 256 253 259 265 291 274 261 264 258 268 276
284 287 282 285 278 277 273 276 276 278 261 267 259 262 273 295 302 319 323 331 333 327 321 304 275 272 273 257 246 243 243 248 256 257 260 264 263 280 267 254 257 256 260 266
312 275 281 286 272 272 264 255 259 263 253 193 223 280 318 311 298 310 301 314 312 316 300 299 309 315 301 231 230 231 236 231 240 246 251 253 261 272 257 252 259 258 263 267
298 287 290 287 268 254 264 266 262 254 264 248 264 276 290 283 294 294 288 282 290 308 304 299 297 275 269 259 242 213 211 212 224 227 235 247 255 254 246 252 257 256 258 261
292 266 304 285 276 273 261 266 251 293 285 259 238 252 263 285 284 290 290 291 294 290 289 296 294 284 272 253 255 242 235 232 240 233 240 237 242 248 250 249 244 248 257 262
296 291 276 259 272 283 280 267 285 296 278 272 264 282 289 281 279 279 273 282 288 296 307 289 264 275 275 265 254 255 253 250 243 240 238 227 237 245 243 236 240 250 256 261
291 293 284 274 271 271 277 282 281 280 281 278 287 293 296 292 286 287 286 287 287 289 296 289 270 246 254 270 260 254 242 248 246 238 236 233 237 243 243 242 251 252 256 264
298 297 297 296 288 284 286 281 279 276 280 283 288 285 281 276 276 281 283 283 284 283 286 291 289 257 266 245 258 256 245 249 249 237 237 230 235 240 240 239 247 248 260 260
295 295 294 287 291 290 285 284 273 268 268 271 276 275 267 257 259 265 270 280 281 279 279 282 282 286 268 246 243 253 261 253 246 246 238 231 230 231 235 246 243 254 252 247
281 285 286 284 297 241 278 230 257 269 267 272 278 281 282 285 283 283 288 288 285 283 281 279 275 275 269 260 261 251 244 253 257 251 241 238 228 231 236 239 242 245 244 240
278 271 273 271 252 286 289 267 259 278 282 277 279 282 287 292 293 296 292 292 293 291 287 285 284 278 274 264 253 257 252 239 243 247 245 243 233 233 231 226 241 250 249 251
263 275 281 276 276 255 258 255 261 271 278 274 283 282 286 290 292 295 297 297 296 293 289 282 281 282 273 272 262 252 252 249 241 241 247 241 235 230 239 248 235 260 250 247
289 287 278 272 262 261 263 270 267 258 275 280 288 290 292 290 294 295 297 299 302 301 301 294 282 284 280 272 271 263 256 251 244 239 244 246 231 227 227 233 250 232 234 241
281 288 281 280 265 272 264 279 307 296 288 292 291 287 286 286 286 294 297 295 296 300 300 299 298 299 286 283 267 259 261 264 255 251 244 246 237 215 224 232 228 228 233 235
273 260 270 273 265 272 289 291 293 292 291 289 288 289 290 290 289 290 292 296 298 298 299 299 295 298 300 294 288 276 275 264 272 261 266 249 233 212 218 219 222 229 233 238
280 285 288 289 284 288 282 283 289 290 288 287 285 287 289 292 294 294 294 293 296 299 300 295 294 294 294 294 294 294 284 267 282 267 274 263 214 207 208 211 220 228 232 237
296 296 300 285 296 293 292 294 291 291 296 298 295 295 294 292 292 296 294 295 298 297 293 281 279 282 289 290 298 297 303 289 276 269 274 238 172 201 206 215 224 233 236 242
321 308 301 295 304 299 304 308 304 304 305 301 299 296 293 290 292 299 295 295 298 300 285 268 264 263 273 276 274 280 263 249 229 233 216 214 233 232 227 229 235 239 242 247
Height
3163 3164 3164 3166 3167 3168 3168 3168 3167 3167 3169 3168 3167 3166 3166 3168 3168 3170 3172 3174 3176 3178 3180 3182 3184 3185 3186 3186 3186 3187 3188 3191 3193 3193 3193 3194 3196 3198 3200 3200 3200 3201 3200 3201
3162 3160 3163 3164 3165 3166 3166 3165 3164 3162 3165 3164 3163 3163 3163 3161 3163 3166 3169 3170 3172 3174 3176 3177 3179 3180 3179 3179 3181 3182 3185 3188 3189 3189 3189 3188 3192 3194 3196 3196 3196 3197 3197 3196
3160 3160 3161 3163 3164 3165 3165 3165 3164 3165 3162 3162 3160 3160 3157 3158 3160 3164 3166 3167 3168 3169 3169 3171 3173 3174 3175 3174 3175 3179 3180 3183 3184 3186 3188 3187 3187 3188 3189 3191 3192 3193 3192 3191
3158 3158 3159 3161 3161 3163 3161 3162 3161 3160 3160 3159 3159 3158 3157 3157 3158 3159 3161 3160 3161 3162 3162 3165 3166 3167 3168 3168 3172 3174 3175 3177 3178 3181 3180 3179 3181 3182 3183 3185 3186 3187 3186 3187
3156 3155 3156 3156 3158 3160 3160 3159 3158 3158 3156 3156 3156 3157 3153 3155 3155 3157 3156 3154 3154 3155 3156 3157 3159 3160 3160 3165 3166 3168 3169 3171 3172 3172 3174 3174 3171 3172 3174 3177 3179 3178 3180 3182
3152 3153 3153 3154 3154 3156 3157 3156 3155 3154 3152 3151 3153 3152 3148 3151 3151 3151 3149 3148 3148 3149 3149 3149 3149 3151 3155 3157 3157 3160 3161 3164 3166 3168 3169 3169 3167 3166 3168 3167 3172 3172 3173 3173
3150 3148 3150 3152 3153 3153 3153 3154 3152 3152 3151 3150 3148 3146 3144 3146 3147 3146 3144 3142 3142 3142 3141 3140 3139 3141 3144 3143 3145 3148 3152 3156 3160 3162 3163 3164 3163 3162 3165 3164 3165 3167 3166 3169
3149 3147 3147 3149 3150 3150 3149 3150 3150 3152 3152 3145 3145 3142 3142 3142 3141 3141 3139 3135 3133 3133 3132 3131 3130 3130 3131 3132 3134 3137 3143 3149 3153 3156 3157 3159 3158 3159 3159 3159 3158 3160 3159 3161
3148 3141 3143 3145 3146 3148 3146 3144 3146 3142 3138 3138 3138 3138 3138 3137 3136 3135 3131 3128 3125 3124 3124 3122 3121 3121 3123 3124 3125 3129 3136 3143 3147 3149 3152 3153 3154 3154 3153 3154 3154 3155 3154 3153
3145 3137 3139 3138 3141 3141 3141 3142 3141 3140 3138 3136 3131 3131 3132 3132 3131 3130 3128 3126 3124 3121 3118 3118 3115 3117 3117 3118 3120 3124 3130 3137 3140 3143 3145 3147 3149 3148 3146 3146 3149 3151 3152 3150
3142 3139 3137 3136 3136 3136 3137 3136 3135 3134 3133 3131 3132 3127 3129 3129 3128 3126 3126 3124 3122 3120 3117 3115 3113 3114 3115 3116 3117 3120 3125 3130 3133 3137 3140 3141 3142 3143 3141 3140 3141 3144 3146 3145
3139 3137 3134 3133 3134 3132 3131 3130 3130 3127 3126 3124 3123 3122 3126 3125 3122 3120 3118 3116 3114 3114 3114 3113 3112 3112 3112 3113 3114 3116 3118 3121 3125 3128 3131 3134 3136 3136 3135 3134 3136 3138 3139 3139
3134 3133 3131 3129 3130 3128 3127 3126 3124 3123 3121 3120 3118 3116 3120 3119 3117 3116 3112 3112 3110 3108 3106 3105 3107 3107 3108 3108 3109 3111 3112 3113 3118 3120 3123 3126 3128 3130 3128 3127 3131 3132 3132 3133
3130 3129 3129 3128 3127 3125 3122 3121 3120 3120 3118 3113 3110 3107 3112 3112 3110 3109 3106 3106 3104 3103 3100 3098 3097 3100 3102 3102 3103 3105 3106 3109 3110 3112 3114 3117 3121 3122 3122 3123 3125 3125 3126 3126
3126 3124 3123 3121 3121 3120 3116 3114 3115 3114 3110 3107 3104 3102 3103 3103 3104 3101 3099 3098 3097 3097 3095 3092 3090 3090 3092 3096 3097 3098 3099 3101 3104 3105 3106 3109 3112 3114 3115 3116 3116 3118 3120 3118
3118 3115 3114 3111 3113 3111 3108 3109 3109 3106 3103 3098 3096 3095 3094 3094 3095 3094 3090 3089 3088 3088 3086 3085 3083 3083 3082 3082 3088 3091 3092 3093 3094 3096 3098 3100 3104 3106 3107 3108 3109 3110 3111 3110
3111 3108 3106 3098 3103 3101 3096 3099 3100 3098 3095 3092 3088 3088 3085 3085 3085 3085 3083 3080 3078 3077 3077 3076 3076 3075 3075 3075 3076 3081 3085 3085 3086 3088 3089 3092 3094 3095 3097 3098 3100 3102 3102 3103
3104 3103 3101 3095 3097 3094 3090 3090 3090 3089 3087 3084 3081 3077 3076 3075 3077 3078 3075 3070 3069 3068 3067 3067 3066 3068 3068 3069 3068 3069 3070 3076 3077 3079 3080 3082 3084 3084 3084 3082 3085 3091 3091 3093
3100 3099 3097 3095 3092 3086 3085 3086 3086 3083 3080 3077 3075 3071 3069 3067 3068 3071 3067 3064 3061 3059 3058 3058 3057 3055 3057 3059 3059 3059 3058 3060 3066 3067 3069 3071 3071 3071 3069 3061 3073 3082 3087 3086
3098 3097 3096 3093 3090 3084 3079 3080 3082 3080 3074 3072 3069 3066 3064 3061 3059 3058 3056 3055 3052 3051 3050 3048 3048 3048 3045 3046 3048 3046 3045 3048 3050 3057 3059 3059 3059 3060 3060 3060 3057 3061 3076 3075
3093 3091 3088 3086 3084 3078 3073 3074 3075 3076 3073 3066 3062 3061 3058 3055 3054 3049 3048 3046 3045 3040 3037 3039 3039 3038 3036 3034 3034 3032 3032 3032 3033 3037 3043 3045 3040 3045 3048 3051 3056 3055 3058 3063
3090 3087 3084 3082 3080 3076 3071 3069 3072 3068 3065 3061 3058 3056 3051 3049 3046 3042 3038 3038 3035 3032 3029 3028 3027 3028 3028 3025 3023 3021 3020 3018 3023 3026 3025 3023 3009 3023 3034 3041 3044 3047 3048 3052
3086 3083 3081 3081 3074 3071 3066 3066 3062 3057 3054 3051 3048 3046 3042 3038 3036 3033 3029 3025 3023 3022 3020 3016 3015 3016 3017 3016 3013 3012 3012 3011 3012 3013 3012 2996 2961 2997 3023 3030 3033 3038 3038 3040
3077 3076 3073 3070 3067 3063 3059 3057 3053 3050 3045 3042 3039 3035 3032 3027 3025 3021 3019 3015 3012 3011 3009 3007 3004 3003 3005 3005 3003 2998 3002 3002 2997 2995 2986 2964 2985 3004 3014 3019 3025 3030 3028 3028
3072 3069 3064 3058 3057 3053 3053 3050 3046 3042 3038 3033 3029 3026 3021 3018 3014 3011 3008 3005 3003 3000 3000 2998 2996 2994 2993 2993 2992 2990 2989 2985 2981 2983 2979 2951 2976 3002 3009 3013 3018 3022 3022 3020
3065 3062 3059 3053 3052 3046 3043 3041 3038 3033 3029 3026 3021 3015 3013 3009 3005 3004 2999 2997 2995 2992 2991 2990 2988 2987 2987 2985 2986 2985 2985 2983 2982 2978 2978 2982 2992 3001 3004 3006 3010 3013 3010 3012